Chehalis, WA
on Friday, January 11, 2013

Friday
Previous Day Next Day
Daily Summary
 ActualAverage (KOLM)Record (KOLM)
Temperature
Mean Temperature °F / °C 40°F / 4°C  
Max Temperature 39°F / 4°C 45°F / 7°C 59°F / 15°C (1983)
Min Temperature 26°F / -3°C 34°F / 1°C 6°F / -14°C (1963)
Degree Days
Heating Degree Days 32 25  
Month to date heating degree days 285  
Since 1 July heating degree days 2555  
Cooling Degree Days 0 0  
Month to date cooling degree days 0  
Year to date cooling degree days 0  
Moisture
Dew Point 28°F / -2°C   
Average Humidity 88    
Maximum Humidity 100    
Minimum Humidity 49    
Precipitation
Precipitation 0.00 in / 0.00 cm 0.26 in / 6.60 cm 1.16 in / 2.95 cm (1953)
Month to date precipitation 2.83  
Year to date precipitation 2.83  
Wind
Wind Speed 1 mph / 2 km/h   
Max Wind Speed 9 mph / 14 km/h   
Max Gust Speed mph / km/h   
Visibility 5 miles / 9 kilometers   
Events Fog   

Key: T is trace of precipitation, MM is missing value
Source: NWS Daily Summary
Time(PST)TemperatureDew PointHumidity Pressure Visibility Wind DirectionWind SpeedGust SpeedPrecipitationEvents Conditions
12:15 AM 33.8°F / 1.0°C 32.0°F / 0.0°C 93% 30.14 in / 1020.5 hPa 5.0 miles / 8.0 kilometers Calm Calm - N/A   Overcast
12:35 AM 33.8°F / 1.0°C 32.0°F / 0.0°C 93% 30.14 in / 1020.5 hPa 7.0 miles / 11.3 kilometers Calm Calm - N/A   Overcast
12:55 AM 33.8°F / 1.0°C 32.0°F / 0.0°C 93% 30.14 in / 1020.5 hPa 8.0 miles / 12.9 kilometers Calm Calm - N/A   Overcast
1:15 AM 32.0°F / 0.0°C 32.0°F / 0.0°C 100% 30.14 in / 1020.5 hPa 9.0 miles / 14.5 kilometers Calm Calm - N/A   Overcast
1:35 AM 32.0°F / 0.0°C 32.0°F / 0.0°C 100% 30.15 in / 1020.9 hPa 2.0 miles / 3.2 kilometers Calm Calm - N/A   Overcast
1:55 AM 32.0°F / 0.0°C 32.0°F / 0.0°C 100% 30.15 in / 1020.9 hPa 0.2 miles / 0.4 kilometers Calm Calm - N/A Fog Fog
2:15 AM 32.0°F / 0.0°C 32.0°F / 0.0°C 100% 30.16 in / 1021.2 hPa 0.2 miles / 0.4 kilometers North 3.5 mph / 5.6 km/h - N/A Fog Fog
2:35 AM 32.0°F / 0.0°C 32.0°F / 0.0°C 100% 30.16 in / 1021.2 hPa 0.2 miles / 0.4 kilometers NE 3.5 mph / 5.6 km/h - N/A Fog Fog
2:55 AM 32.0°F / 0.0°C 32.0°F / 0.0°C 100% 30.16 in / 1021.2 hPa 0.2 miles / 0.4 kilometers Calm Calm - N/A Fog Light Freezing Fog
3:15 AM 32.0°F / 0.0°C 32.0°F / 0.0°C 100% 30.17 in / 1021.6 hPa 0.2 miles / 0.4 kilometers Calm Calm - N/A Fog Light Freezing Fog
3:55 AM 32.0°F / 0.0°C 30.2°F / -1.0°C 93% 30.17 in / 1021.6 hPa 0.2 miles / 0.4 kilometers Calm Calm - N/A Fog Light Freezing Fog
4:15 AM 32.0°F / 0.0°C 30.2°F / -1.0°C 93% 30.17 in / 1021.6 hPa 0.2 miles / 0.4 kilometers Calm Calm - N/A Fog Light Freezing Fog
4:35 AM 30.2°F / -1.0°C 30.2°F / -1.0°C 100% 30.18 in / 1021.9 hPa 0.2 miles / 0.4 kilometers Calm Calm - N/A Fog Light Freezing Fog
4:55 AM 30.2°F / -1.0°C 30.2°F / -1.0°C 100% 30.18 in / 1021.9 hPa 0.2 miles / 0.4 kilometers Calm Calm - N/A Fog Light Freezing Fog
5:15 AM 30.2°F / -1.0°C 30.2°F / -1.0°C 100% 30.18 in / 1021.9 hPa 0.2 miles / 0.4 kilometers Calm Calm - N/A Fog Light Freezing Fog
5:35 AM 30.2°F / -1.0°C 28.4°F / -2.0°C 93% 30.19 in / 1022.2 hPa 0.2 miles / 0.4 kilometers Calm Calm - N/A Fog Light Freezing Fog
5:55 AM 30.2°F / -1.0°C 28.4°F / -2.0°C 93% 30.19 in / 1022.2 hPa 0.2 miles / 0.4 kilometers Calm Calm - N/A Fog Light Freezing Fog
6:15 AM 28.4°F / -2.0°C 28.4°F / -2.0°C 100% 30.20 in / 1022.6 hPa 0.2 miles / 0.4 kilometers Calm Calm - N/A Fog Light Freezing Fog
6:35 AM 28.4°F / -2.0°C 28.4°F / -2.0°C 100% 30.21 in / 1022.9 hPa 0.2 miles / 0.4 kilometers Calm Calm - N/A Fog Light Freezing Fog
6:55 AM 28.4°F / -2.0°C 28.4°F / -2.0°C 100% 30.22 in / 1023.2 hPa 0.2 miles / 0.4 kilometers Calm Calm - N/A Fog Light Freezing Fog
7:15 AM 28.4°F / -2.0°C 28.4°F / -2.0°C 100% 30.23 in / 1023.6 hPa 0.2 miles / 0.4 kilometers Calm Calm - N/A Fog Light Freezing Fog
7:35 AM 28.4°F / -2.0°C 28.4°F / -2.0°C 100% 30.24 in / 1023.9 hPa 0.2 miles / 0.4 kilometers Calm Calm - N/A Fog Light Freezing Fog
7:55 AM 28.4°F / -2.0°C 28.4°F / -2.0°C 100% 30.25 in / 1024.3 hPa 0.2 miles / 0.4 kilometers Calm Calm - N/A Fog Light Freezing Fog
8:15 AM 28.4°F / -2.0°C 28.4°F / -2.0°C 100% 30.26 in / 1024.6 hPa 0.2 miles / 0.4 kilometers Calm Calm - N/A Fog Light Freezing Fog
8:35 AM 28.4°F / -2.0°C 28.4°F / -2.0°C 100% 30.27 in / 1024.9 hPa 0.2 miles / 0.4 kilometers Calm Calm - N/A Fog Light Freezing Fog
8:55 AM 28.4°F / -2.0°C 28.4°F / -2.0°C 100% 30.28 in / 1025.3 hPa 0.2 miles / 0.4 kilometers Calm Calm - N/A Fog Light Freezing Fog
9:55 AM 28.4°F / -2.0°C 28.4°F / -2.0°C 100% 30.30 in / 1026.0 hPa 0.2 miles / 0.4 kilometers Calm Calm - N/A Fog Light Freezing Fog
10:15 AM 28.4°F / -2.0°C 28.4°F / -2.0°C 100% 30.30 in / 1026.0 hPa 0.2 miles / 0.4 kilometers Calm Calm - N/A Fog Light Freezing Fog
10:35 AM 32.0°F / 0.0°C 30.2°F / -1.0°C 93% 30.31 in / 1026.3 hPa 0.2 miles / 0.4 kilometers Calm Calm - N/A Fog Light Freezing Fog
10:55 AM 32.0°F / 0.0°C 32.0°F / 0.0°C 100% 30.31 in / 1026.3 hPa 0.2 miles / 0.4 kilometers Calm Calm - N/A Fog Fog
11:15 AM 32.0°F / 0.0°C 32.0°F / 0.0°C 100% 30.31 in / 1026.3 hPa 5.0 miles / 8.0 kilometers North 3.5 mph / 5.6 km/h - N/A   Mostly Cloudy
11:35 AM 33.8°F / 1.0°C 32.0°F / 0.0°C 93% 30.31 in / 1026.3 hPa 10.0 miles / 16.1 kilometers North 6.9 mph / 11.1 km/h - N/A   Clear
12:15 PM 35.6°F / 2.0°C 30.2°F / -1.0°C 81% 30.30 in / 1026.0 hPa 10.0 miles / 16.1 kilometers NE 9.2 mph / 14.8 km/h - N/A   Clear
12:35 PM 37.4°F / 3.0°C 26.6°F / -3.0°C 65% 30.30 in / 1026.0 hPa 8.0 miles / 12.9 kilometers ENE 9.2 mph / 14.8 km/h - N/A   Clear
12:55 PM 37.4°F / 3.0°C 24.8°F / -4.0°C 60% 30.30 in / 1026.0 hPa 10.0 miles / 16.1 kilometers NE 9.2 mph / 14.8 km/h - N/A   Clear
1:15 PM 39.2°F / 4.0°C 24.8°F / -4.0°C 56% 30.31 in / 1026.3 hPa 9.0 miles / 14.5 kilometers ENE 6.9 mph / 11.1 km/h - N/A   Clear
1:35 PM 39.2°F / 4.0°C 24.8°F / -4.0°C 56% 30.31 in / 1026.3 hPa 9.0 miles / 14.5 kilometers NE 6.9 mph / 11.1 km/h - N/A   Partly Cloudy
1:55 PM 39.2°F / 4.0°C 23.0°F / -5.0°C 52% 30.31 in / 1026.3 hPa 7.0 miles / 11.3 kilometers NE 6.9 mph / 11.1 km/h - N/A   Clear
2:15 PM 39.2°F / 4.0°C 23.0°F / -5.0°C 52% 30.31 in / 1026.3 hPa 10.0 miles / 16.1 kilometers NNE 8.1 mph / 13.0 km/h - N/A   Clear
2:35 PM 39.2°F / 4.0°C 23.0°F / -5.0°C 52% 30.31 in / 1026.3 hPa 10.0 miles / 16.1 kilometers NE 8.1 mph / 13.0 km/h - N/A   Clear
2:55 PM 39.2°F / 4.0°C 23.0°F / -5.0°C 52% 30.32 in / 1026.6 hPa 10.0 miles / 16.1 kilometers NE 8.1 mph / 13.0 km/h - N/A   Clear
3:15 PM 39.2°F / 4.0°C 21.2°F / -6.0°C 49% 30.32 in / 1026.6 hPa 10.0 miles / 16.1 kilometers NE 8.1 mph / 13.0 km/h - N/A   Clear
3:35 PM 37.4°F / 3.0°C 23.0°F / -5.0°C 56% 30.32 in / 1026.6 hPa 10.0 miles / 16.1 kilometers NE 5.8 mph / 9.3 km/h - N/A   Clear
3:55 PM 37.4°F / 3.0°C 23.0°F / -5.0°C 56% 30.32 in / 1026.6 hPa 10.0 miles / 16.1 kilometers NNE 5.8 mph / 9.3 km/h - N/A   Clear
4:15 PM 35.6°F / 2.0°C 23.0°F / -5.0°C 60% 30.33 in / 1027.0 hPa 10.0 miles / 16.1 kilometers NNE 5.8 mph / 9.3 km/h - N/A   Clear
4:35 PM 33.8°F / 1.0°C 26.6°F / -3.0°C 75% 30.33 in / 1027.0 hPa 9.0 miles / 14.5 kilometers North 3.5 mph / 5.6 km/h - N/A   Clear
4:55 PM 32.0°F / 0.0°C 26.6°F / -3.0°C 80% 30.33 in / 1027.0 hPa 10.0 miles / 16.1 kilometers Calm Calm - N/A   Clear
5:15 PM 32.0°F / 0.0°C 26.6°F / -3.0°C 80% 30.33 in / 1027.0 hPa 9.0 miles / 14.5 kilometers NNW 3.5 mph / 5.6 km/h - N/A   Clear
5:35 PM 32.0°F / 0.0°C 28.4°F / -2.0°C 87% 30.33 in / 1027.0 hPa 9.0 miles / 14.5 kilometers Calm Calm - N/A   Clear
5:55 PM 30.2°F / -1.0°C 26.6°F / -3.0°C 86% 30.33 in / 1027.0 hPa 10.0 miles / 16.1 kilometers WSW 3.5 mph / 5.6 km/h - N/A   Clear
6:15 PM 30.2°F / -1.0°C 28.4°F / -2.0°C 93% 30.34 in / 1027.3 hPa 10.0 miles / 16.1 kilometers Calm Calm - N/A   Clear
6:35 PM 28.4°F / -2.0°C 26.6°F / -3.0°C 93% 30.34 in / 1027.3 hPa 10.0 miles / 16.1 kilometers Calm Calm - N/A   Clear
6:55 PM 28.4°F / -2.0°C 28.4°F / -2.0°C 100% 30.34 in / 1027.3 hPa 10.0 miles / 16.1 kilometers Calm Calm - N/A   Clear
7:15 PM 28.4°F / -2.0°C 28.4°F / -2.0°C 100% 30.34 in / 1027.3 hPa 10.0 miles / 16.1 kilometers Calm Calm - N/A   Clear
7:35 PM 28.4°F / -2.0°C 26.6°F / -3.0°C 93% 30.33 in / 1027.0 hPa 10.0 miles / 16.1 kilometers Calm Calm - N/A   Clear
7:55 PM 28.4°F / -2.0°C 26.6°F / -3.0°C 93% 30.32 in / 1026.6 hPa 10.0 miles / 16.1 kilometers Calm Calm - N/A   Clear
8:15 PM 28.4°F / -2.0°C 26.6°F / -3.0°C 93% 30.33 in / 1027.0 hPa 8.0 miles / 12.9 kilometers Calm Calm - N/A   Clear
8:35 PM 28.4°F / -2.0°C 28.4°F / -2.0°C 100% 30.33 in / 1027.0 hPa 10.0 miles / 16.1 kilometers Calm Calm - N/A   Clear
8:55 PM 28.4°F / -2.0°C 26.6°F / -3.0°C 93% 30.34 in / 1027.3 hPa 10.0 miles / 16.1 kilometers Calm Calm - N/A   Clear
9:15 PM 28.4°F / -2.0°C 26.6°F / -3.0°C 93% 30.33 in / 1027.0 hPa 10.0 miles / 16.1 kilometers Calm Calm - N/A   Clear
9:35 PM 28.4°F / -2.0°C 26.6°F / -3.0°C 93% 30.33 in / 1027.0 hPa 7.0 miles / 11.3 kilometers Calm Calm - N/A   Clear
9:55 PM 28.4°F / -2.0°C 26.6°F / -3.0°C 93% 30.33 in / 1027.0 hPa 8.0 miles / 12.9 kilometers Calm Calm - N/A   Clear
10:15 PM 28.4°F / -2.0°C 26.6°F / -3.0°C 93% 30.33 in / 1027.0 hPa 10.0 miles / 16.1 kilometers Calm Calm - N/A   Clear
10:35 PM 26.6°F / -3.0°C 26.6°F / -3.0°C 100% 30.33 in / 1027.0 hPa 8.0 miles / 12.9 kilometers SSW 3.5 mph / 5.6 km/h - N/A   Clear
10:55 PM 26.6°F / -3.0°C 26.6°F / -3.0°C 100% 30.33 in / 1027.0 hPa 10.0 miles / 16.1 kilometers South 3.5 mph / 5.6 km/h - N/A   Clear
11:35 PM 26.6°F / -3.0°C 26.6°F / -3.0°C 100% 30.33 in / 1027.0 hPa 1.2 miles / 2.0 kilometers Calm Calm - N/A   Mostly Cloudy
11:55 PM 26.6°F / -3.0°C 26.6°F / -3.0°C 100% 30.33 in / 1027.0 hPa 1.0 miles / 1.6 kilometers Calm Calm - N/A   Mostly Cloudy
Moon Phase
Jan. 11 Jan. 18 Jan. 26 Feb. 03 Feb. 10
Sunrise:07:54 AM (PST) Moon Rise:07:28 AM (PST)1/11
Sunset:04:46 PM (PST) Moon Set:05:14 PM (PST)1/11

Copyright © 2014 The Weather Underground, Inc.